Regional Weather Roundup
Issued by NWS

Home | Current Version | Previous Version | Graphics & Text | Print | Product List | Glossary On
Versions: 1 2 3 4 5 6 7 8 9 10 11 12 13 14 15 16 17 18 19 20 21 22 23 24 25 26 27 28 29 30 31 32 33 34 35 36 37 38 39 40 41 42 43 44 45 46 47 48 49 50
000
ASUS43 KBIS 030810
RWRND

NORTH DAKOTA REGIONAL WEATHER ROUNDUP
NATIONAL WEATHER SERVICE BISMARCK ND
300 AM CDT WED JUN 03 2015

NOTE: "FAIR" INDICATES FEW OR NO CLOUDS BELOW 12,000 FEET WITH NO
SIGNIFICANT WEATHER AND/OR OBSTRUCTIONS TO VISIBILITY.


NDZ001>003-009>011-017-030900-
NORTHWEST NORTH DAKOTA

CITY           SKY/WX    TMP DP  RH WIND       PRES   REMARKS
WILLISTON      CLOUDY    53  51  93 NW9       29.97R
MINOT          CLOUDY    49  46  90 N20       29.91R
MINOT AFB      LGT RAIN  48  48 100 NE16G23   29.92R
$$

NDZ018>021-031>035-040>046-030900-
SOUTHWEST NORTH DAKOTA

CITY           SKY/WX    TMP DP  RH WIND       PRES   REMARKS
BISMARCK       CLOUDY    61  58  90 NW13      29.81S
DICKINSON      CLOUDY    54  50  86 NW9       29.91R
GARRISON         N/A     51  48  89 N13G22    29.87R
HETTINGER ARPT CLOUDY    55  51  86 NW15      29.91S
$$

NDZ004>008-012>016-024-026-027-054-030900-
NORTHEAST NORTH DAKOTA

CITY           SKY/WX    TMP DP  RH WIND       PRES   REMARKS
GRAND FORKS    CLOUDY    61  60  97 N12       29.74R
GRND FRKS AFB  CLOUDY    61  59  94 NE13      29.75R
DEVILS LAKE    CLOUDY    54  43  66 N12       29.80R
$$

NDZ022-023-025-028>030-036>039-047>053-030900-
SOUTHEAST NORTH DAKOTA

CITY           SKY/WX    TMP DP  RH WIND       PRES   REMARKS
FARGO          MOCLDY    69  62  78 S10       29.68R
JAMESTOWN      CLOUDY    61  59  93 N10       29.75S
$$




USA.gov is the U.S. government's official web portal to all federal, state and local government web resources and services.